Time,TemperatureF,DewpointF,PressureIn,WindDirection,WindDirectionDegrees,WindSpeedMPH,WindSpeedGustMPH,Humidity,HourlyPrecipIn,Conditions,Clouds,dailyrainin,SolarRadiationWatts/m^2,SoftwareType,DateUTC
2013-07-11 00:11:00,77.0,46.0,29.82,ESE,116,12.0,-999.0,33,-99.99,,,-99.99,0.000000,,2013-07-11 06:11:00,
2013-07-11 00:22:00,77.0,46.0,29.82,ESE,110,13.0,-999.0,33,-99.99,,,-99.99,0.000000,,2013-07-11 06:22:00,
2013-07-11 00:32:00,77.0,46.0,29.82,ESE,110,13.0,-999.0,33,-99.99,,,-99.99,0.000000,,2013-07-11 06:32:00,
2013-07-11 00:43:00,76.0,46.0,29.82,SSE,168,8.0,-999.0,34,-99.99,,,-99.99,0.000000,,2013-07-11 06:43:00,
2013-07-11 00:52:00,75.0,45.0,29.83,SSE,165,1.0,-999.0,35,-99.99,,,-99.99,0.000000,,2013-07-11 06:52:00,
2013-07-11 01:01:00,75.0,45.0,29.83,SSE,165,1.0,-999.0,35,-99.99,,,-99.99,0.000000,,2013-07-11 07:01:00,
2013-07-11 01:12:00,74.0,45.0,29.83,ESE,119,1.0,-999.0,36,-99.99,,,-99.99,0.000000,,2013-07-11 07:12:00,
2013-07-11 01:22:00,74.0,46.0,29.83,ESE,121,1.0,-999.0,37,-99.99,,,-99.99,0.000000,,2013-07-11 07:22:00,
2013-07-11 01:32:00,74.0,46.0,29.83,ESE,121,1.0,-999.0,37,-99.99,,,-99.99,0.000000,,2013-07-11 07:32:00,
2013-07-11 01:45:00,74.0,45.0,29.83,ESE,119,3.0,-999.0,36,-99.99,,,-99.99,0.000000,,2013-07-11 07:45:00,
2013-07-11 01:53:00,74.0,46.0,29.83,ESE,103,1.0,-999.0,37,-99.99,,,-99.99,0.000000,,2013-07-11 07:53:00,
2013-07-11 02:02:00,74.0,46.0,29.83,ESE,103,1.0,-999.0,37,-99.99,,,-99.99,0.000000,,2013-07-11 08:02:00,
2013-07-11 02:11:00,74.0,45.0,29.82,ESE,105,5.0,-999.0,35,-99.99,,,-99.99,0.000000,,2013-07-11 08:11:00,
2013-07-11 02:22:00,74.0,45.0,29.81,East,96,3.0,-999.0,35,-99.99,,,-99.99,0.000000,,2013-07-11 08:22:00,
2013-07-11 02:34:00,74.0,45.0,29.81,East,96,3.0,-999.0,35,-99.99,,,-99.99,0.000000,,2013-07-11 08:34:00,
2013-07-11 02:43:00,72.0,41.0,29.81,SSE,147,1.0,-999.0,33,-99.99,,,-99.99,0.000000,,2013-07-11 08:43:00,
2013-07-11 02:53:00,71.0,37.0,29.81,SSE,147,0.0,-999.0,29,-99.99,,,-99.99,0.000000,,2013-07-11 08:53:00,
2013-07-11 03:02:00,71.0,37.0,29.81,SSE,147,0.0,-999.0,29,-99.99,,,-99.99,0.000000,,2013-07-11 09:02:00,
2013-07-11 03:12:00,71.0,34.0,29.81,SSE,147,0.0,-999.0,26,-99.99,,,-99.99,0.000000,,2013-07-11 09:12:00,
2013-07-11 03:21:00,71.0,35.0,29.81,SSE,147,0.0,-999.0,27,-99.99,,,-99.99,0.000000,,2013-07-11 09:21:00,
2013-07-11 03:33:00,71.0,35.0,29.81,SSE,147,0.0,-999.0,27,-99.99,,,-99.99,0.000000,,2013-07-11 09:33:00,
2013-07-11 03:43:00,70.0,34.0,29.80,SSE,147,0.0,-999.0,27,-99.99,,,-99.99,0.000000,,2013-07-11 09:43:00,
2013-07-11 03:53:00,70.0,34.0,29.80,ESE,123,0.0,-999.0,27,-99.99,,,-99.99,0.000000,,2013-07-11 09:53:00,
2013-07-11 04:01:00,70.0,34.0,29.80,ESE,123,0.0,-999.0,27,-99.99,,,-99.99,0.000000,,2013-07-11 10:01:00,
2013-07-11 04:12:00,70.0,34.0,29.79,ESE,123,0.0,-999.0,26,-99.99,,,-99.99,0.000000,,2013-07-11 10:12:00,
2013-07-11 04:21:00,69.0,34.0,29.79,ESE,115,0.0,-999.0,27,-99.99,,,-99.99,0.000000,,2013-07-11 10:21:00,
2013-07-11 04:33:00,69.0,34.0,29.79,ESE,115,0.0,-999.0,27,-99.99,,,-99.99,0.000000,,2013-07-11 10:33:00,
2013-07-11 04:42:00,69.0,43.0,29.78,ENE,67,4.0,-999.0,39,-99.99,,,-99.99,0.000000,,2013-07-11 10:42:00,
2013-07-11 04:52:00,68.0,45.0,29.78,ENE,68,7.0,-999.0,43,-99.99,,,-99.99,0.000000,,2013-07-11 10:52:00,
2013-07-11 05:02:00,68.0,45.0,29.78,ENE,68,7.0,-999.0,43,-99.99,,,-99.99,0.000000,,2013-07-11 11:02:00,
2013-07-11 05:12:00,68.0,45.0,29.77,NE,47,3.0,-999.0,43,-99.99,,,-99.99,0.000000,,2013-07-11 11:12:00,
2013-07-11 05:32:00,66.0,45.0,29.77,NNE,26,0.0,-999.0,46,-99.99,,,-99.99,0.000000,,2013-07-11 11:32:00,
2013-07-11 05:43:00,64.0,44.0,29.77,ENE,61,2.0,-999.0,49,-99.99,,,-99.99,0.000000,,2013-07-11 11:43:00,
2013-07-11 06:01:00,62.0,45.0,29.77,NNW,327,0.0,-999.0,53,-99.99,,,-99.99,0.000000,,2013-07-11 12:01:00,
2013-07-11 06:12:00,62.0,46.0,29.78,NW,323,0.0,-999.0,56,-99.99,,,-99.99,7.000000,,2013-07-11 12:12:00,
2013-07-11 06:22:00,62.0,46.0,29.78,NW,323,0.0,-999.0,56,-99.99,,,-99.99,7.000000,,2013-07-11 12:22:00,
2013-07-11 06:33:00,62.0,46.0,29.78,NW,323,0.0,-999.0,55,-99.99,,,-99.99,12.000000,,2013-07-11 12:33:00,
2013-07-11 06:43:00,63.0,46.0,29.78,NW,320,0.0,-999.0,54,-99.99,,,-99.99,21.000000,,2013-07-11 12:43:00,
2013-07-11 06:54:00,63.0,46.0,29.78,NW,320,0.0,-999.0,54,-99.99,,,-99.99,21.000000,,2013-07-11 12:54:00,
2013-07-11 07:02:00,63.0,46.0,29.78,NW,320,0.0,-999.0,53,-99.99,,,-99.99,69.000000,,2013-07-11 13:02:00,
2013-07-11 07:12:00,63.0,46.0,29.78,NW,309,0.0,-999.0,53,-99.99,,,-99.99,109.000000,,2013-07-11 13:12:00,
2013-07-11 07:22:00,63.0,46.0,29.78,NW,309,0.0,-999.0,53,-99.99,,,-99.99,109.000000,,2013-07-11 13:22:00,
2013-07-11 07:34:00,65.0,46.0,29.78,NW,310,0.0,-999.0,51,-99.99,,,-99.99,165.000000,,2013-07-11 13:34:00,
2013-07-11 07:45:00,66.0,47.0,29.78,NW,317,0.0,-999.0,50,-99.99,,,-99.99,230.000000,,2013-07-11 13:45:00,
2013-07-11 07:53:00,66.0,47.0,29.78,NW,317,0.0,-999.0,50,-99.99,,,-99.99,230.000000,,2013-07-11 13:53:00,
2013-07-11 08:04:00,67.0,48.0,29.78,NW,321,0.0,-999.0,51,-99.99,,,-99.99,244.000000,,2013-07-11 14:04:00,
2013-07-11 08:14:00,68.0,49.0,29.77,NNW,346,0.0,-999.0,50,-99.99,,,-99.99,176.000000,,2013-07-11 14:14:00,
2013-07-11 08:23:00,68.0,49.0,29.77,NNW,346,0.0,-999.0,50,-99.99,,,-99.99,176.000000,,2013-07-11 14:23:00,
2013-07-11 08:35:00,69.0,49.0,29.77,NNW,346,0.0,-999.0,49,-99.99,,,-99.99,171.000000,,2013-07-11 14:35:00,
2013-07-11 08:45:00,69.0,48.0,29.77,NNW,346,0.0,-999.0,48,-99.99,,,-99.99,186.000000,,2013-07-11 14:45:00,
2013-07-11 08:53:00,69.0,48.0,29.77,NNW,346,0.0,-999.0,48,-99.99,,,-99.99,186.000000,,2013-07-11 14:53:00,
2013-07-11 09:04:00,70.0,49.0,29.77,NNW,346,0.0,-999.0,48,-99.99,,,-99.99,204.000000,,2013-07-11 15:04:00,
2013-07-11 09:12:00,71.0,50.0,29.76,NNW,346,0.0,-999.0,47,-99.99,,,-99.99,225.000000,,2013-07-11 15:12:00,
2013-07-11 09:23:00,71.0,50.0,29.76,NNW,346,0.0,-999.0,47,-99.99,,,-99.99,225.000000,,2013-07-11 15:23:00,
2013-07-11 09:35:00,71.0,49.0,29.76,North,5,2.0,-999.0,46,-99.99,,,-99.99,278.000000,,2013-07-11 15:35:00,
2013-07-11 09:45:00,72.0,50.0,29.76,NNW,343,2.0,-999.0,46,-99.99,,,-99.99,387.000000,,2013-07-11 15:45:00,
2013-07-11 09:55:00,72.0,50.0,29.76,NNW,343,2.0,-999.0,46,-99.99,,,-99.99,387.000000,,2013-07-11 15:55:00,
2013-07-11 10:13:00,74.0,50.0,29.75,NNW,331,0.0,-999.0,43,-99.99,,,-99.99,417.000000,,2013-07-11 16:13:00,
2013-07-11 10:23:00,74.0,50.0,29.75,NNW,331,0.0,-999.0,43,-99.99,,,-99.99,417.000000,,2013-07-11 16:23:00,
2013-07-11 10:34:00,75.0,49.0,29.74,NNW,341,0.0,-999.0,40,-99.99,,,-99.99,431.000000,,2013-07-11 16:34:00,
2013-07-11 10:44:00,76.0,49.0,29.74,NNW,342,0.0,-999.0,38,-99.99,,,-99.99,598.000000,,2013-07-11 16:44:00,
2013-07-11 10:54:00,76.0,49.0,29.74,NNW,342,0.0,-999.0,38,-99.99,,,-99.99,598.000000,,2013-07-11 16:54:00,
2013-07-11 11:02:00,78.0,50.0,29.74,WNW,299,0.0,-999.0,37,-99.99,,,-99.99,661.000000,,2013-07-11 17:02:00,
2013-07-11 11:13:00,79.0,50.0,29.73,NNW,330,1.0,-999.0,36,-99.99,,,-99.99,761.000000,,2013-07-11 17:13:00,
2013-07-11 11:25:00,79.0,50.0,29.73,NNW,330,1.0,-999.0,36,-99.99,,,-99.99,761.000000,,2013-07-11 17:25:00,
2013-07-11 11:45:00,82.0,49.0,29.72,WNW,303,2.0,-999.0,32,-99.99,,,-99.99,856.000000,,2013-07-11 17:45:00,
2013-07-11 11:52:00,82.0,49.0,29.72,WNW,303,2.0,-999.0,32,-99.99,,,-99.99,856.000000,,2013-07-11 17:52:00,
2013-07-11 12:03:00,83.0,48.0,29.72,NW,315,1.0,-999.0,30,-99.99,,,-99.99,916.000000,,2013-07-11 18:03:00,
2013-07-11 12:14:00,83.0,47.0,29.72,NE,53,1.0,-999.0,29,-99.99,,,-99.99,942.000000,,2013-07-11 18:14:00,
2013-07-11 12:22:00,83.0,47.0,29.72,NE,53,1.0,-999.0,29,-99.99,,,-99.99,942.000000,,2013-07-11 18:22:00,
2013-07-11 12:35:00,84.0,48.0,29.71,WNW,299,1.0,-999.0,29,-99.99,,,-99.99,946.000000,,2013-07-11 18:35:00,
2013-07-11 12:45:00,86.0,47.0,29.70,NNW,331,2.0,-999.0,26,-99.99,,,-99.99,582.000000,,2013-07-11 18:45:00,
2013-07-11 12:53:00,86.0,47.0,29.70,NNW,331,2.0,-999.0,26,-99.99,,,-99.99,582.000000,,2013-07-11 18:53:00,
2013-07-11 13:03:00,86.0,47.0,29.70,North,355,1.0,-999.0,26,-99.99,,,-99.99,858.000000,,2013-07-11 19:03:00,
2013-07-11 13:12:00,87.0,42.0,29.69,NE,55,1.0,-999.0,21,-99.99,,,-99.99,925.000000,,2013-07-11 19:12:00,
2013-07-11 13:23:00,87.0,42.0,29.69,NE,55,1.0,-999.0,21,-99.99,,,-99.99,925.000000,,2013-07-11 19:23:00,
2013-07-11 13:37:00,88.0,43.0,29.68,WNW,292,1.0,-999.0,21,-99.99,,,-99.99,916.000000,,2013-07-11 19:37:00,
2013-07-11 13:44:00,89.0,43.0,29.68,NW,322,2.0,-999.0,20,-99.99,,,-99.99,939.000000,,2013-07-11 19:44:00,
2013-07-11 13:54:00,89.0,43.0,29.68,NW,322,2.0,-999.0,20,-99.99,,,-99.99,939.000000,,2013-07-11 19:54:00,
2013-07-11 14:04:00,90.0,42.0,29.67,NW,324,2.0,-999.0,19,-99.99,,,-99.99,974.000000,,2013-07-11 20:04:00,
2013-07-11 14:12:00,91.0,39.0,29.67,East,96,3.0,-999.0,16,-99.99,,,-99.99,990.000000,,2013-07-11 20:12:00,
2013-07-11 14:25:00,91.0,39.0,29.67,East,96,3.0,-999.0,16,-99.99,,,-99.99,990.000000,,2013-07-11 20:25:00,
2013-07-11 14:36:00,91.0,39.0,29.66,WSW,238,2.0,-999.0,16,-99.99,,,-99.99,962.000000,,2013-07-11 20:36:00,
2013-07-11 14:46:00,92.0,41.0,29.65,SW,223,1.0,-999.0,17,-99.99,,,-99.99,958.000000,,2013-07-11 20:46:00,
2013-07-11 14:53:00,92.0,41.0,29.65,SW,223,1.0,-999.0,17,-99.99,,,-99.99,958.000000,,2013-07-11 20:53:00,
2013-07-11 15:04:00,92.0,38.0,29.65,South,170,2.0,-999.0,15,-99.99,,,-99.99,898.000000,,2013-07-11 21:04:00,
2013-07-11 15:34:00,93.0,33.0,29.64,SSW,199,5.0,-999.0,12,-99.99,,,-99.99,339.000000,,2013-07-11 21:34:00,
2013-07-11 15:44:00,94.0,34.0,29.63,SW,228,3.0,-999.0,12,-99.99,,,-99.99,510.000000,,2013-07-11 21:44:00,
2013-07-11 15:54:00,94.0,34.0,29.63,SW,228,3.0,-999.0,12,-99.99,,,-99.99,510.000000,,2013-07-11 21:54:00,
2013-07-11 16:04:00,94.0,34.0,29.63,West,268,1.0,-999.0,12,-99.99,,,-99.99,737.000000,,2013-07-11 22:04:00,
2013-07-11 16:14:00,94.0,31.0,29.62,SW,217,5.0,-999.0,11,-99.99,,,-99.99,545.000000,,2013-07-11 22:14:00,
2013-07-11 16:23:00,94.0,31.0,29.62,SW,217,5.0,-999.0,11,-99.99,,,-99.99,545.000000,,2013-07-11 22:23:00,
2013-07-11 16:33:00,93.0,33.0,29.62,SW,226,10.0,-999.0,12,-99.99,,,-99.99,287.000000,,2013-07-11 22:33:00,
2013-07-11 16:45:00,92.0,34.0,29.62,WSW,251,9.0,-999.0,13,-99.99,,,-99.99,257.000000,,2013-07-11 22:45:00,
2013-07-11 16:54:00,92.0,34.0,29.62,WSW,251,9.0,-999.0,13,-99.99,,,-99.99,257.000000,,2013-07-11 22:54:00,
2013-07-11 17:04:00,92.0,32.0,29.61,West,259,12.0,-999.0,12,-99.99,,,-99.99,251.000000,,2013-07-11 23:04:00,
2013-07-11 17:13:00,92.0,32.0,29.61,SW,221,10.0,-999.0,12,-99.99,,,-99.99,290.000000,,2013-07-11 23:13:00,
2013-07-11 17:23:00,92.0,32.0,29.61,SW,221,10.0,-999.0,12,-99.99,,,-99.99,290.000000,,2013-07-11 23:23:00,
2013-07-11 17:35:00,92.0,32.0,29.60,WSW,247,10.0,-999.0,12,-99.99,,,-99.99,343.000000,,2013-07-11 23:35:00,
2013-07-11 17:46:00,92.0,30.0,29.60,WSW,244,9.0,-999.0,11,-99.99,,,-99.99,422.000000,,2013-07-11 23:46:00,
2013-07-11 17:54:00,92.0,30.0,29.60,WSW,244,9.0,-999.0,11,-99.99,,,-99.99,422.000000,,2013-07-11 23:54:00,
2013-07-11 18:04:00,92.0,30.0,29.60,SW,230,8.0,-999.0,11,-99.99,,,-99.99,269.000000,,2013-07-12 00:04:00,
2013-07-11 18:13:00,92.0,32.0,29.60,West,279,4.0,-999.0,12,-99.99,,,-99.99,239.000000,,2013-07-12 00:13:00,
2013-07-11 18:23:00,92.0,32.0,29.60,West,279,4.0,-999.0,12,-99.99,,,-99.99,239.000000,,2013-07-12 00:23:00,
2013-07-11 18:34:00,92.0,34.0,29.60,WNW,290,2.0,-999.0,13,-99.99,,,-99.99,183.000000,,2013-07-12 00:34:00,
2013-07-11 18:43:00,91.0,37.0,29.59,WNW,296,2.0,-999.0,15,-99.99,,,-99.99,163.000000,,2013-07-12 00:43:00,
2013-07-11 18:54:00,91.0,37.0,29.59,WNW,296,2.0,-999.0,15,-99.99,,,-99.99,163.000000,,2013-07-12 00:54:00,
2013-07-11 19:03:00,91.0,40.0,29.59,NNW,328,3.0,-999.0,17,-99.99,,,-99.99,144.000000,,2013-07-12 01:03:00,
2013-07-11 19:12:00,89.0,38.0,29.60,WNW,283,3.0,-999.0,17,-99.99,,,-99.99,111.000000,,2013-07-12 01:12:00,
2013-07-11 19:25:00,89.0,38.0,29.60,WNW,283,3.0,-999.0,17,-99.99,,,-99.99,111.000000,,2013-07-12 01:25:00,
2013-07-11 19:44:00,88.0,36.0,29.60,West,281,4.0,-999.0,16,-99.99,,,-99.99,51.000000,,2013-07-12 01:44:00,
2013-07-11 19:55:00,88.0,36.0,29.60,West,281,4.0,-999.0,16,-99.99,,,-99.99,51.000000,,2013-07-12 01:55:00,
2013-07-11 20:04:00,87.0,35.0,29.60,West,274,4.0,-999.0,16,-99.99,,,-99.99,19.000000,,2013-07-12 02:04:00,
2013-07-11 20:15:00,87.0,37.0,29.60,WNW,283,1.0,-999.0,17,-99.99,,,-99.99,16.000000,,2013-07-12 02:15:00,
2013-07-11 20:24:00,87.0,37.0,29.60,WNW,283,1.0,-999.0,17,-99.99,,,-99.99,16.000000,,2013-07-12 02:24:00,
2013-07-11 20:35:00,85.0,41.0,29.61,WNW,294,1.0,-999.0,21,-99.99,,,-99.99,12.000000,,2013-07-12 02:35:00,
2013-07-11 20:43:00,84.0,42.0,29.61,NW,314,0.0,-999.0,23,-99.99,,,-99.99,7.000000,,2013-07-12 02:43:00,
2013-07-11 20:52:00,84.0,42.0,29.61,NW,314,0.0,-999.0,23,-99.99,,,-99.99,7.000000,,2013-07-12 02:52:00,
2013-07-11 21:02:00,83.0,41.0,29.61,WNW,288,1.0,-999.0,23,-99.99,,,-99.99,0.000000,,2013-07-12 03:02:00,
2013-07-11 21:13:00,82.0,39.0,29.60,WNW,292,0.0,-999.0,22,-99.99,,,-99.99,0.000000,,2013-07-12 03:13:00,
2013-07-11 21:23:00,82.0,39.0,29.60,WNW,292,0.0,-999.0,22,-99.99,,,-99.99,0.000000,,2013-07-12 03:23:00,
2013-07-11 21:35:00,82.0,41.0,29.61,NW,321,0.0,-999.0,23,-99.99,,,-99.99,0.000000,,2013-07-12 03:35:00,
2013-07-11 21:43:00,82.0,41.0,29.62,WNW,290,0.0,-999.0,23,-99.99,,,-99.99,0.000000,,2013-07-12 03:43:00,
2013-07-11 22:01:00,81.0,37.0,29.63,West,274,2.0,-999.0,21,-99.99,,,-99.99,0.000000,,2013-07-12 04:01:00,
2013-07-11 22:11:00,81.0,40.0,29.65,WNW,294,2.0,-999.0,23,-99.99,,,-99.99,0.000000,,2013-07-12 04:11:00,
2013-07-11 22:21:00,81.0,40.0,29.65,WNW,294,2.0,-999.0,23,-99.99,,,-99.99,0.000000,,2013-07-12 04:21:00,
2013-07-11 22:32:00,81.0,41.0,29.66,WNW,288,10.0,-999.0,24,-99.99,,,-99.99,0.000000,,2013-07-12 04:32:00,
2013-07-11 22:43:00,79.0,41.0,29.67,WNW,290,13.0,-999.0,26,-99.99,,,-99.99,0.000000,,2013-07-12 04:43:00,
2013-07-11 22:53:00,79.0,41.0,29.67,WNW,290,13.0,-999.0,26,-99.99,,,-99.99,0.000000,,2013-07-12 04:53:00,
2013-07-11 23:02:00,77.0,41.0,29.67,WNW,298,11.0,-999.0,28,-99.99,,,-99.99,0.000000,,2013-07-12 05:02:00,
2013-07-11 23:11:00,76.0,42.0,29.67,WNW,300,12.0,-999.0,30,-99.99,,,-99.99,0.000000,,2013-07-12 05:11:00,
2013-07-11 23:22:00,76.0,42.0,29.67,WNW,300,12.0,-999.0,30,-99.99,,,-99.99,0.000000,,2013-07-12 05:22:00,
2013-07-11 23:32:00,75.0,43.0,29.69,NW,306,8.0,-999.0,32,-99.99,,,-99.99,0.000000,,2013-07-12 05:32:00,
2013-07-11 23:53:00,74.0,45.0,29.69,NNW,327,7.0,-999.0,35,-99.99,,,-99.99,0.000000,,2013-07-12 05:53:00,